| time (UTC) | temp F | wind direction | speed MPH | gust MPH | rain 1hr in | rain 24hr in | rain mn in | humidity % | barometer mb |
| 20260906061530 | 58 | 217 | 10.0 | 14.0 | 0.00 | 0.00 | 0.00 | 54 | 1012.0 |
| 20260906060035 | 58 | 221 | 8.0 | 16.0 | 0.00 | 0.00 | 0.00 | 53 | 1012.0 |
| 20260906054529 | 57 | 265 | 11.0 | 15.0 | 0.00 | 0.00 | 0.00 | 54 | 1012.0 |
| 20260906053030 | 57 | 240 | 8.0 | 16.0 | 0.00 | 0.00 | 0.00 | 54 | 1012.0 |
| 20260906051527 | 57 | 226 | 7.0 | 16.0 | 0.00 | 0.00 | 0.00 | 54 | 1012.1 |
| 20260906050027 | 57 | 252 | 8.0 | 17.0 | 0.00 | 0.00 | 0.00 | 55 | 1012.0 |
| 20260906044526 | 58 | 262 | 10.0 | 16.0 | 0.00 | 0.00 | 0.00 | 55 | 1012.1 |
| 20260906043030 | 58 | 234 | 10.0 | 15.0 | 0.00 | 0.00 | 0.00 | 54 | 1012.2 |
| 20260906041526 | 58 | 263 | 8.0 | 14.0 | 0.00 | 0.00 | 0.00 | 54 | 1012.3 |
| 20260906040030 | 58 | 268 | 8.0 | 16.0 | 0.00 | 0.00 | 0.00 | 55 | 1012.0 |
| 20260906034534 | 58 | 251 | 12.0 | 19.0 | 0.00 | 0.00 | 0.00 | 55 | 1011.7 |
| 20260906033028 | 58 | 291 | 9.0 | 16.0 | 0.00 | 0.00 | 0.00 | 55 | 1011.5 |
| 20260906031523 | 58 | 267 | 6.0 | 18.0 | 0.00 | 0.00 | 0.00 | 55 | 1011.4 |
| 20260906030023 | 59 | 301 | 9.0 | 17.0 | 0.00 | 0.00 | 0.00 | 54 | 1011.3 |
| 20260906024522 | 60 | 281 | 10.0 | 16.0 | 0.00 | 0.00 | 0.00 | 52 | 1011.0 |
| 20260906023022 | 60 | 274 | 9.0 | 17.0 | 0.00 | 0.00 | 0.00 | 51 | 1010.7 |
| 20260906021523 | 61 | 295 | 5.0 | 12.0 | 0.00 | 0.00 | 0.00 | 49 | 1011.0 |
| 20260906020020 | 63 | 290 | 4.0 | 11.0 | 0.00 | 0.00 | 0.00 | 45 | 1010.9 |
| 20260906014533 | 65 | 302 | 4.0 | 10.0 | 0.00 | 0.00 | 0.00 | 43 | 1010.7 |
| 20260906013018 | 66 | 278 | 4.0 | 14.0 | 0.00 | 0.00 | 0.00 | 41 | 1010.7 |
| 20260906011532 | 66 | 267 | 13.0 | 17.0 | 0.00 | 0.00 | 0.00 | 41 | 1010.6 |
| 20260906010016 | 67 | 276 | 13.0 | 18.0 | 0.00 | 0.00 | 0.00 | 39 | 1010.5 |
| 20260906004524 | 68 | 260 | 14.0 | 19.0 | 0.00 | 0.00 | 0.00 | 37 | 1010.6 |
| 20260906003013 | 67 | 242 | 13.0 | 21.0 | 0.00 | 0.00 | 0.00 | 38 | 1010.5 |
| 20260906001512 | 68 | 245 | 15.0 | 23.0 | 0.00 | 0.00 | 0.00 | 40 | 1010.5 |
| 20260906000010 | 68 | 270 | 12.0 | 22.0 | 0.00 | 0.00 | 0.00 | 39 | 1010.5 |
| 20260905234510 | 69 | 282 | 11.0 | 21.0 | 0.00 | 0.00 | 0.00 | 38 | 1010.6 |
| 20260905233107 | 69 | 245 | 11.0 | 19.0 | 0.00 | 0.00 | 0.00 | 39 | 1010.4 |
| 20260905231507 | 69 | 229 | 8.0 | 19.0 | 0.00 | 0.00 | 0.00 | 38 | 1010.5 |
| 20260905230005 | 69 | 226 | 11.0 | 20.0 | 0.00 | 0.00 | 0.00 | 37 | 1010.6 |
| 20260905224505 | 69 | 294 | 8.0 | 27.0 | 0.00 | 0.00 | 0.00 | 38 | 1010.8 |
| 20260905223003 | 69 | 235 | 10.0 | 21.0 | 0.00 | 0.00 | 0.00 | 38 | 1011.0 |
| 20260905221502 | 70 | 254 | 13.0 | 18.0 | 0.00 | 0.00 | 0.00 | 37 | 1010.9 |
| 20260905220001 | 70 | 197 | 10.0 | 20.0 | 0.00 | 0.00 | 0.00 | 35 | 1010.9 |
| 20260905214601 | 70 | 265 | 11.0 | 17.0 | 0.00 | 0.00 | 0.00 | 34 | 1010.9 |
| 20260905213059 | 70 | 220 | 7.0 | 20.0 | 0.00 | 0.00 | 0.00 | 34 | 1010.9 |
| 20260905211558 | 69 | 304 | 8.0 | 22.0 | 0.00 | 0.00 | 0.00 | 35 | 1011.3 |
| 20260905210058 | 69 | 218 | 10.0 | 18.0 | 0.00 | 0.00 | 0.00 | 36 | 1011.5 |
| 20260905204602 | 70 | 177 | 8.0 | 16.0 | 0.00 | 0.00 | 0.00 | 34 | 1011.5 |
| 20260905203059 | 70 | 252 | 7.0 | 19.0 | 0.00 | 0.00 | 0.00 | 35 | 1012.0 |
| 20260905201553 | 69 | 159 | 2.0 | 9.0 | 0.00 | 0.00 | 0.00 | 38 | 1012.2 |
| 20260905200056 | 65 | 196 | 3.0 | 13.0 | 0.00 | 0.00 | 0.00 | 42 | 1012.3 |
| 20260905194550 | 66 | 245 | 5.0 | 11.0 | 0.00 | 0.00 | 0.00 | 41 | 1012.4 |
| 20260905193104 | 66 | 176 | 2.0 | 10.0 | 0.00 | 0.00 | 0.00 | 43 | 1012.7 |
| 20260905191553 | 64 | 30 | 2.0 | 4.0 | 0.00 | 0.00 | 0.00 | 45 | 1012.9 |
| 20260905190046 | 64 | 230 | 0.0 | 4.0 | 0.00 | 0.00 | 0.00 | 46 | 1013.0 |
| 20260905184541 | 62 | 197 | 0.0 | 4.0 | 0.00 | 0.00 | 0.00 | 47 | 1013.2 |
| 20260905183040 | 62 | 207 | 3.0 | 11.0 | 0.00 | 0.00 | 0.00 | 48 | 1013.3 |
| 20260905181541 | 62 | 83 | 1.0 | 5.0 | 0.00 | 0.00 | 0.00 | 49 | 1013.4 |
| 20260905180043 | 62 | 141 | 0.0 | 7.0 | 0.00 | 0.00 | 0.00 | 51 | 1013.5 |
| 20260905174534 | 60 | 141 | 0.0 | 3.0 | 0.00 | 0.00 | 0.00 | 53 | 1013.5 |
| 20260905173034 | 59 | 74 | 0.0 | 5.0 | 0.00 | 0.00 | 0.00 | 56 | 1013.5 |
| 20260905171532 | 59 | 98 | 0.0 | 4.0 | 0.00 | 0.00 | 0.00 | 56 | 1013.6 |
| 20260905170028 | 58 | 149 | 0.0 | 5.0 | 0.00 | 0.00 | 0.00 | 58 | 1013.7 |
| 20260905164526 | 56 | 155 | 1.0 | 4.0 | 0.00 | 0.00 | 0.00 | 60 | 1013.7 |
| 20260905163023 | 53 | 290 | 0.0 | 4.0 | 0.00 | 0.00 | 0.00 | 66 | 1013.7 |
| 20260905161522 | 52 | 285 | 3.0 | 5.0 | 0.00 | 0.00 | 0.00 | 67 | 1013.9 |
| 20260905160037 | 50 | 314 | 0.0 | 1.0 | 0.00 | 0.00 | 0.00 | 78 | 1013.7 |
| 20260905154522 | 50 | 321 | 3.0 | 5.0 | 0.00 | 0.00 | 0.00 | 72 | 1013.8 |
| 20260905153019 | 50 | 315 | 4.0 | 6.0 | 0.00 | 0.00 | 0.00 | 68 | 1013.9 |
| 20260905151518 | 49 | 337 | 1.0 | 4.0 | 0.00 | 0.00 | 0.00 | 70 | 1013.8 |
| 20260905150017 | 49 | 295 | 3.0 | 4.0 | 0.00 | 0.00 | 0.00 | 70 | 1013.7 |
| 20260905144517 | 49 | 347 | 2.0 | 4.0 | 0.00 | 0.00 | 0.00 | 72 | 1013.7 |
| 20260905143015 | 48 | 316 | 2.0 | 5.0 | 0.00 | 0.00 | 0.00 | 74 | 1013.6 |
| 20260905141512 | 47 | 356 | 2.0 | 5.0 | 0.00 | 0.00 | 0.00 | 76 | 1013.5 |
| 20260905140010 | 46 | 326 | 3.0 | 5.0 | 0.00 | 0.00 | 0.00 | 76 | 1013.3 |
| 20260905134508 | 45 | 354 | 2.0 | 4.0 | 0.00 | 0.00 | 0.00 | 77 | 1013.1 |
| 20260905133005 | 46 | 347 | 2.0 | 4.0 | 0.00 | 0.00 | 0.00 | 77 | 1012.9 |
| 20260905131504 | 46 | 1 | 2.0 | 5.0 | 0.00 | 0.00 | 0.00 | 76 | 1012.8 |
| 20260905130001 | 45 | 51 | 0.0 | 5.0 | 0.00 | 0.00 | 0.00 | 76 | 1012.7 |
| 20260905124601 | 46 | 346 | 2.0 | 4.0 | 0.00 | 0.00 | 0.00 | 76 | 1012.7 |
| 20260905123104 | 46 | 356 | 2.0 | 3.0 | 0.00 | 0.00 | 0.00 | 75 | 1012.8 |
| 20260905121556 | 46 | 340 | 0.0 | 3.0 | 0.00 | 0.00 | 0.00 | 74 | 1012.8 |
| 20260905114553 | 47 | 353 | 0.0 | 0.0 | 0.00 | 0.00 | 0.00 | 73 | 1012.8 |
| 20260905113052 | 47 | 353 | 0.0 | 0.0 | 0.00 | 0.00 | 0.00 | 72 | 1012.4 |
| 20260905111623 | 47 | 311 | 3.0 | 5.0 | 0.00 | 0.00 | 0.00 | 71 | 1012.5 |
| 20260905110047 | 46 | 324 | 0.0 | 3.0 | 0.00 | 0.00 | 0.00 | 72 | 1012.5 |
| 20260905104543 | 48 | 345 | 1.0 | 4.0 | 0.00 | 0.00 | 0.00 | 70 | 1012.2 |
| 20260905103042 | 50 | 15 | 2.0 | 4.0 | 0.00 | 0.00 | 0.00 | 66 | 1012.2 |
| 20260905101544 | 50 | 87 | 2.0 | 3.0 | 0.00 | 0.00 | 0.00 | 69 | 1012.3 |
| 20260905100039 | 49 | 93 | 0.0 | 0.0 | 0.00 | 0.00 | 0.00 | 69 | 1012.1 |
| 20260905094536 | 50 | 93 | 0.0 | 0.0 | 0.00 | 0.00 | 0.00 | 68 | 1012.1 |
| 20260905093039 | 51 | 96 | 0.0 | 4.0 | 0.00 | 0.00 | 0.00 | 66 | 1011.8 |
| 20260905091533 | 51 | 96 | 1.0 | 5.0 | 0.00 | 0.00 | 0.00 | 66 | 1011.9 |
| 20260905090034 | 51 | 85 | 0.0 | 4.0 | 0.00 | 0.00 | 0.00 | 66 | 1011.7 |
| 20260905084530 | 50 | 92 | 0.0 | 0.0 | 0.00 | 0.00 | 0.00 | 67 | 1011.7 |
| 20260905083035 | 52 | 82 | 4.0 | 7.0 | 0.00 | 0.00 | 0.00 | 65 | 1011.7 |
| 20260905081526 | 51 | 83 | 1.0 | 5.0 | 0.00 | 0.00 | 0.00 | 65 | 1011.7 |
| 20260905080025 | 52 | 89 | 0.0 | 2.0 | 0.00 | 0.00 | 0.00 | 63 | 1011.7 |
| 20260905074520 | 53 | 96 | 0.0 | 7.0 | 0.00 | 0.00 | 0.00 | 60 | 1011.7 |
| 20260905073023 | 54 | 114 | 1.0 | 6.0 | 0.00 | 0.00 | 0.00 | 60 | 1011.7 |
| 20260905071515 | 55 | 240 | 6.0 | 12.0 | 0.00 | 0.00 | 0.00 | 57 | 1011.6 |
| 20260905070014 | 55 | 246 | 9.0 | 15.0 | 0.00 | 0.00 | 0.00 | 58 | 1011.3 |
| 20260905064518 | 55 | 264 | 9.0 | 22.0 | 0.00 | 0.00 | 0.00 | 59 | 1011.1 |
| 20260905063010 | 55 | 205 | 6.0 | 15.0 | 0.00 | 0.00 | 0.00 | 57 | 1011.0 |